Location: Indian Hills
(32.9760°N, 85.9450°W)
Time: 22:48:22
(UTC+00:00)

NOAA 11 - Pass Details

Date: 09 December 2019
Orbit: 833 x 849 km, 98.4° (Epoch: 18 January)

Event Time Altitude Azimuth Distance (km) Brightness Sun altitude
Rises 00:14:24 0° 154° (SSE) 3,372 7.2 -19.9°
Reaches altitude 10° 00:16:47 10° 150° (SSE) 2,443 6.4 -20.4°
Maximum altitude 00:22:04 55° 74° (ENE) 1,003 4.2 -21.5°
Drops below altitude 10° 00:27:23 10° 357° (N) 2,467 6.5 -22.5°
Sets 00:29:48 0° 354° (N) 3,408 7.3 -23.0°
